Wind_Speed
40 41 41 42 43 44 45 46 47 49 51 53 55 58 61 64 66 69 71 73 74 76 76 77 78 78 78 78 79 80 81 82 83 85 86 88 90 91 93 96 99 100 101 103 105 106 107 108 108 109 109 109 109 109 109 109 109 109 107 106 105 104 105 107 110 112 113 114 113 110 106 102 98 96 96 98 103 107 108 108 104 101 99 99 97 94 93 94
36 36 37 37 37 38 39 40 41 43 44 46 48 50 53 56 59 61 64 67 69 71 72 74 74 75 76 76 77 78 79 80 82 83 84 85 86 87 89 91 93 95 97 98 100 102 103 104 105 106 107 108 109 109 108 109 109 108 107 106 105 105 107 110 113 113 113 112 110 107 104 101 99 98 97 99 103 106 107 107 103 99 98 99 99 96 93 91
33 33 33 33 33 34 34 35 36 38 39 41 42 44 46 49 52 54 57 59 62 64 66 68 70 71 72 73 74 75 77 78 80 80 81 82 84 84 86 87 89 91 92 94 95 97 98 100 102 103 104 105 106 106 106 107 107 107 106 104 105 107 108 111 113 112 110 109 106 104 101 98 99 100 99 99 102 105 104 103 100 97 97 99 98 94 91 90
30 30 30 29 30 30 30 31 32 33 34 35 37 39 41 43 45 48 50 52 55 58 60 62 64 66 68 69 71 72 74 75 76 77 78 80 81 82 83 84 85 87 89 90 91 93 95 96 98 99 100 101 102 103 104 104 105 105 103 102 104 107 107 109 110 107 105 103 99 98 97 97 100 103 101 97 99 102 102 99 96 94 94 94 92 90 90 92
27 27 26 26 26 26 27 27 28 28 29 31 32 33 35 37 39 42 44 46 49 51 54 56 58 61 62 64 66 68 70 71 72 74 75 76 77 79 80 81 82 84 85 86 88 89 91 92 93 95 96 97 99 100 100 101 102 101 100 101 102 103 104 105 103 100 98 96 95 95 98 99 100 100 97 94 95 98 99 96 93 90 90 89 89 90 93 94
24 24 23 23 23 23 23 23 24 24 25 26 27 28 30 32 34 36 38 40 42 45 47 49 52 54 56 58 60 62 64 65 67 68 70 71 73 75 76 77 78 80 81 83 84 85 87 88 89 90 92 93 94 96 96 97 97 96 97 99 99 99 100 99 96 94 92 93 97 98 96 95 94 94 92 92 96 97 96 95 92 88 85 86 89 92 94 92
21 21 20 20 20 21 21 21 21 22 23 23 24 25 26 27 29 31 33 35 37 39 41 43 45 47 49 51 53 55 56 58 60 62 63 65 67 69 71 72 74 75 76 78 79 81 82 84 85 86 88 89 90 91 91 92 92 92 94 95 95 95 95 94 90 88 87 92 98 96 91 89 91 92 91 93 95 93 93 91 89 85 83 84 87 92 92 87
20 19 19 19 20 20 20 21 21 22 22 23 23 24 24 25 26 27 29 30 32 33 35 37 39 41 43 44 46 47 49 50 52 54 56 57 59 62 63 66 67 69 70 72 74 75 77 78 80 81 82 83 84 85 86 86 86 88 90 91 91 91 91 88 84 84 88 92 93 90 87 86 88 90 89 90 89 88 90 90 86 84 82 83 83 88 89 84
21 21 21 21 22 22 22 22 23 23 23 23 24 24 25 25 26 26 27 28 29 30 31 33 34 35 37 38 39 40 41 43 44 46 48 49 51 53 55 57 59 61 63 64 66 68 70 72 74 75 76 77 78 79 81 82 83 85 86 86 87 86 85 83 81 84 88 88 87 85 84 83 85 85 85 85 85 86 89 88 85 82 81 80 79 83 85 83
24 24 24 24 24 24 24 24 24 24 24 24 24 25 25 26 26 26 26 27 27 28 29 30 31 32 32 33 33 34 36 37 38 39 40 42 44 45 47 49 51 53 54 56 58 60 62 64 66 68 70 70 72 74 75 76 78 79 79 80 82 80 80 80 80 82 85 84 82 81 80 81 81 80 79 82 85 86 83 82 83 81 78 76 76 79 81 80
26 26 26 26 26 26 26 26 26 26 26 26 26 26 26 27 27 27 27 27 27 28 28 29 29 30 30 30 31 32 33 33 34 35 35 36 38 39 41 42 44 45 47 49 51 53 55 57 59 60 61 62 65 67 68 70 71 71 73 75 76 75 76 76 76 78 78 78 78 76 76 77 77 76 76 80 84 82 75 74 81 82 76 73 72 74 76 76
27 27 27 27 27 27 27 27 27 28 28 28 28 28 29 29 29 29 29 29 29 29 30 30 31 31 30 30 31 32 32 32 32 33 33 34 34 35 36 37 39 40 41 43 44 46 48 49 51 52 54 56 58 59 60 63 65 64 67 69 69 69 70 70 72 73 72 73 73 71 71 73 73 72 73 78 80 75 67 68 78 80 73 68 67 69 71 71
28 28 29 29 29 29 29 29 30 30 30 30 31 31 31 31 32 32 32 32 32 32 32 33 33 33 32 32 33 33 32 32 32 33 33 33 33 33 34 34 35 35 36 38 39 40 41 42 43 45 47 48 49 51 54 57 58 58 61 61 61 62 62 63 67 67 65 66 66 65 67 67 68 68 68 72 72 66 61 65 72 73 67 63 63 63 65 66
29 29 29 30 30 30 31 31 31 32 32 32 33 33 33 34 34 34 34 34 34 34 34 35 35 35 35 35 35 34 34 34 34 34 33 33 33 33 32 32 32 32 32 33 34 34 35 36 37 38 40 40 41 45 48 49 50 51 52 52 54 54 54 58 60 58 57 56 58 60 60 61 63 62 62 65 62 56 55 60 65 65 62 59 58 58 59 60
29 29 29 30 30 31 31 32 32 33 33 33 34 34 35 35 35 36 35 35 35 36 36 36 36 37 36 37 37 37 37 36 35 35 34 34 34 33 32 31 30 30 29 30 30 29 29 29 30 32 33 33 35 38 40 40 42 43 44 45 47 47 48 52 51 50 50 50 52 54 54 56 57 55 56 57 52 48 52 57 59 60 57 55 54 53 53 54
29 29 29 30 30 31 31 32 33 33 34 34 34 35 36 36 37 37 37 37 37 37 37 37 38 38 37 38 39 39 39 38 37 36 36 35 35 34 33 31 30 29 28 28 28 27 26 25 26 27 27 28 31 33 33 33 35 37 38 38 39 40 42 45 42 42 45 46 46 46 48 52 51 50 51 49 44 42 48 53 54 55 53 49 47 47 47 47
30 30 30 31 31 32 32 33 33 34 34 35 35 36 36 37 37 38 38 38 38 38 38 38 38 38 38 39 40 40 40 39 39 39 38 37 36 36 34 33 31 30 29 28 27 26 26 25 25 25 24 26 28 28 28 30 31 30 31 32 32 34 38 39 37 37 40 41 41 41 45 49 46 44 44 41 37 36 41 48 49 49 46 43 42 42 42 42
30 31 31 31 32 33 33 33 33 33 33 33 33 34 35 35 36 37 37 38 38 38 39 39 39 39 39 40 40 41 41 41 40 40 39 38 38 37 36 35 33 32 31 29 27 26 26 26 26 26 26 26 26 26 26 26 26 26 28 29 31 33 35 37 34 33 35 36 37 37 42 46 41 38 38 36 32 31 37 44 46 45 43 41 39 39 40 40
31 31 31 32 32 32 32 31 31 30 30 30 30 31 32 32 33 34 34 35 36 37 38 39 39 39 41 41 41 42 41 41 41 41 40 40 39 38 38 37 36 35 33 32 30 28 28 28 27 27 27 27 27 28 27 25 27 28 28 29 30 31 33 33 30 28 27 29 33 35 38 42 38 33 33 31 28 29 34 40 45 45 42 39 38 39 40 39
32 31 32 32 31 31 30 29 28 28 28 28 28 28 29 29 30 31 31 32 33 34 35 36 37 38 40 42 42 41 41 41 41 41 42 42 41 40 39 39 38 37 36 34 33 32 32 31 30 29 27 28 29 29 29 30 33 33 30 29 29 30 32 30 27 28 27 26 29 31 34 38 37 34 32 31 27 28 34 40 44 46 42 39 39 40 40 38
32 32 31 31 30 29 29 28 28 28 27 27 27 27 27 27 28 29 29 30 30 31 32 33 34 36 38 41 41 40 41 41 40 42 43 43 43 42 41 41 41 40 38 36 35 36 36 35 34 31 29 32 33 31 30 33 35 35 34 34 32 33 35 32 30 31 29 26 26 29 34 39 41 39 35 32 29 28 34 42 46 47 45 42 41 40 39 40
32 32 31 31 30 29 29 29 29 28 28 28 27 27 27 27 27 27 28 29 29 29 30 30 31 33 36 38 40 39 39 39 40 43 44 44 44 43 43 43 42 42 40 38 38 39 39 39 38 34 34 37 37 34 34 36 38 37 37 37 37 38 38 37 35 32 29 27 29 34 40 42 44 44 41 37 34 31 32 40 46 47 46 46 45 41 40 43
32 32 31 31 31 31 30 30 30 30 30 30 29 29 28 28 28 27 27 28 29 29 30 30 30 31 33 35 37 37 37 38 40 43 45 44 43 42 43 44 44 43 42 41 41 41 41 42 40 38 40 42 40 38 38 41 41 40 39 38 39 41 42 42 39 34 32 32 36 41 43 41 42 47 47 44 41 37 35 39 45 47 48 49 46 43 43 44
33 33 32 32 32 32 32 32 32 32 32 32 31 31 31 30 30 29 29 29 30 30 30 30 30 31 32 32 33 34 35 36 38 42 46 44 42 42 43 44 45 44 44 43 42 42 43 44 43 43 45 45 43 42 44 45 45 44 43 42 42 43 44 43 40 38 38 38 42 47 44 40 43 48 49 48 45 44 42 41 45 48 50 50 48 45 46 45
34 34 33 33 33 34 34 34 34 34 34 34 33 33 33 33 33 32 32 31 32 32 31 31 31 32 32 32 32 33 33 34 36 40 45 44 41 42 44 45 45 45 46 44 42 43 44 45 46 47 47 46 46 47 48 48 48 47 47 46 46 46 46 45 42 41 41 42 47 49 44 42 47 50 49 49 48 48 47 44 45 49 51 51 49 46 47 46
37 36 36 35 35 35 35 36 36 36 36 36 36 36 35 35 35 35 34 34 34 35 35 34 34 33 33 33 33 33 33 33 35 38 42 42 41 42 44 45 46 47 47 45 43 45 46 45 46 48 48 48 49 50 50 50 50 50 50 52 51 51 50 48 46 45 43 45 48 49 46 45 50 53 51 51 50 50 51 49 48 50 50 51 50 49 48 48
39 39 38 38 37 37 37 37 37 38 38 38 38 38 38 37 37 37 37 37 37 37 37 37 37 36 36 36 35 36 35 34 36 39 41 41 41 42 44 44 45 48 48 46 45 47 47 46 46 48 49 49 50 51 50 51 50 51 53 55 55 55 55 52 51 50 47 47 48 49 50 48 50 54 54 53 53 53 53 52 53 51 50 52 52 51 50 50
41 41 41 40 40 39 39 39 39 39 39 40 40 40 40 39 39 39 39 39 39 39 39 40 39 39 39 39 38 38 38 37 38 40 41 41 42 43 44 44 45 47 47 46 47 48 48 46 45 48 51 50 51 51 51 51 51 52 54 55 56 57 57 56 55 55 53 50 50 52 54 51 50 54 56 55 54 53 52 54 55 53 52 54 55 54 53 53
42 42 42 42 41 41 41 40 40 41 41 41 41 41 41 41 41 42 42 42 42 42 41 42 43 43 42 42 42 41 42 42 41 42 43 43 44 44 45 45 46 47 47 46 48 49 49 47 45 48 51 52 52 52 52 52 52 53 54 55 56 57 57 57 56 58 57 53 54 58 57 53 51 55 59 58 56 54 53 54 55 54 55 57 59 59 57 56
43 43 43 43 42 42 42 42 41 42 42 42 42 42 42 43 43 44 44 44 45 45 45 45 46 46 46 45 45 45 45 45 45 45 46 47 47 47 47 48 48 48 48 48 50 51 50 48 47 49 51 52 53 53 54 54 53 54 56 56 57 58 58 58 57 58 57 56 59 62 59 55 53 57 61 61 58 57 56 56 56 55 55 57 60 61 60 58
43 43 43 43 43 43 42 42 42 42 43 43 43 43 43 44 45 45 46 47 47 48 48 47 48 49 48 48 48 49 48 48 48 48 49 50 50 50 50 51 51 52 52 51 52 52 51 50 49 50 52 52 53 54 55 55 54 55 57 57 58 59 60 59 59 59 58 59 62 62 61 58 55 59 63 62 61 60 60 59 58 57 57 57 58 61 61 61
43 43 43 43 43 43 42 42 42 42 43 43 44 44 44 45 46 47 48 48 49 50 50 48 49 50 50 50 50 50 51 51 50 51 51 52 52 53 53 53 54 55 56 55 54 54 54 54 53 53 54 55 55 55 56 56 55 56 57 58 59 60 61 60 61 61 60 61 64 63 62 59 57 61 64 64 64 64 63 62 61 61 61 60 60 62 63 63
42 42 43 43 43 43 42 42 43 43 44 44 45 45 46 47 48 48 49 50 51 52 51 50 51 51 51 52 52 52 53 54 53 52 53 53 55 55 55 56 56 58 59 57 56 56 57 58 57 56 57 58 58 58 59 59 58 58 58 60 60 61 62 62 62 62 61 62 64 64 62 60 60 63 64 66 66 65 65 65 64 65 65 64 64 65 65 64
41 42 42 42 42 42 43 43 43 44 45 45 46 47 47 48 49 49 50 50 52 53 52 51 52 53 53 54 55 54 54 55 55 53 53 54 55 56 57 58 58 59 60 60 59 59 59 60 60 61 61 61 61 62 63 63 62 60 62 63 62 64 65 65 65 64 63 63 63 63 63 62 62 64 66 67 66 66 67 67 66 66 66 67 67 67 67 66
40 41 41 42 42 43 43 44 44 45 45 46 46 47 48 48 49 50 51 51 52 54 54 53 53 54 54 55 56 56 55 56 56 55 54 55 55 56 57 59 59 59 60 60 60 60 60 60 61 63 64 63 63 64 65 66 66 65 65 66 66 68 70 69 68 67 66 65 63 64 65 63 63 65 66 66 66 67 68 69 69 68 68 69 69 68 69 69
40 41 41 42 42 43 43 44 44 45 46 46 47 48 48 49 50 50 51 51 51 51 53 53 53 52 52 52 54 54 53 54 54 54 54 55 55 56 57 58 59 60 60 59 60 60 60 60 62 63 65 65 65 64 64 66 68 69 69 69 71 73 74 72 71 71 71 70 66 67 68 65 65 65 66 67 68 68 69 70 71 72 71 70 69 69 70 71
40 40 41 42 42 43 44 44 45 46 46 47 47 47 47 47 48 48 48 49 49 48 48 48 49 48 47 47 49 51 49 47 48 50 50 49 50 51 52 54 56 57 57 56 57 59 58 58 61 62 63 65 65 64 63 64 67 69 70 71 73 75 76 74 73 73 74 74 70 71 72 70 68 66 67 69 70 71 72 72 72 74 74 71 69 70 71 71
40 41 42 43 43 44 45 45 45 45 45 45 45 44 44 44 43 44 45 46 45 44 44 43 43 44 43 42 44 46 46 42 41 44 45 44 43 44 47 48 49 51 51 49 50 53 54 53 55 58 59 61 63 61 61 62 65 68 69 70 73 76 76 76 75 74 75 76 74 73 74 74 72 70 72 74 74 75 76 76 74 75 76 74 71 71 71 71
41 42 43 44 44 44 44 43 43 42 42 42 42 41 41 42 42 41 42 44 43 41 39 39 39 39 39 40 40 42 43 41 38 38 40 41 39 40 43 43 43 45 46 45 45 47 49 48 48 52 55 56 58 58 57 58 61 65 66 67 70 73 74 74 75 74 74 76 75 74 74 74 73 74 76 78 78 79 80 79 78 77 77 78 76 74 74 73
42 43 43 43 42 42 41 41 40 40 40 40 40 39 38 39 40 38 37 39 41 40 37 37 37 37 37 38 38 39 40 41 39 37 37 40 39 40 42 41 40 43 44 45 47 46 46 44 43 47 52 53 54 56 57 57 59 62 62 62 65 69 70 72 73 72 73 75 75 74 73 72 73 75 78 79 80 81 81 81 80 80 80 80 80 79 78 77
41 41 41 40 40 40 39 39 39 39 39 38 38 37 35 35 37 36 35 34 36 39 39 38 38 37 37 37 38 38 39 40 42 40 39 41 42 42 42 40 41 45 45 46 48 47 45 44 43 46 51 52 53 55 56 57 59 62 62 62 63 65 67 69 69 68 70 73 72 73 71 68 69 73 76 80 81 80 80 81 81 82 83 83 83 83 82 82
38 39 39 38 39 39 39 39 38 38 37 36 36 36 34 34 36 37 37 36 35 37 39 39 39 39 38 38 39 40 41 41 43 44 44 46 47 46 44 42 43 47 48 48 49 47 46 47 46 47 50 51 53 55 57 58 60 63 63 61 62 63 64 67 67 67 69 71 70 72 71 65 65 70 75 77 78 78 78 79 81 84 85 85 85 84 85 86
36 37 38 39 39 39 38 38 37 36 35 33 34 36 36 35 36 36 37 38 37 36 38 39 40 41 41 41 41 42 43 43 43 46 47 48 50 49 46 46 46 47 49 50 50 49 49 50 48 48 50 50 52 55 59 61 63 62 61 59 60 61 62 65 67 67 69 69 68 72 73 66 63 69 73 73 73 75 76 78 81 84 86 87 86 85 85 86
36 37 38 39 38 37 36 35 35 35 35 34 34 36 37 37 38 37 36 39 40 38 37 39 42 43 43 43 44 44 46 45 45 47 48 49 52 51 49 50 48 48 50 51 52 52 53 53 51 50 51 51 52 56 61 64 64 61 60 60 60 61 63 64 66 67 68 66 67 71 73 66 62 66 70 71 71 73 75 79 81 84 85 85 85 85 84 85
36 35 36 37 36 35 34 34 35 35 36 36 36 37 38 38 40 39 36 38 42 41 39 40 43 45 45 45 46 47 49 49 48 49 49 51 53 54 54 54 52 51 52 53 54 54 54 55 55 54 52 50 52 57 62 65 64 62 60 61 61 62 63 65 66 67 67 66 67 70 71 66 62 63 67 69 70 72 75 79 82 84 84 83 83 83 83 84
34 33 33 34 35 35 35 35 36 36 37 37 37 38 40 39 41 42 38 38 42 44 42 43 46 47 47 47 48 49 50 51 51 51 52 53 55 56 57 58 56 54 54 57 58 56 55 55 57 57 54 52 54 57 61 64 64 62 61 60 60 62 64 67 69 68 68 67 67 67 67 65 62 61 63 65 69 73 77 79 81 82 82 81 81 82 83 83
31 31 32 34 34 35 36 36 37 37 38 38 37 38 40 41 42 45 43 41 42 44 44 46 49 50 49 49 50 51 51 52 52 52 53 54 56 58 59 61 61 57 56 60 61 58 57 57 58 59 57 55 56 58 60 64 64 62 62 60 59 61 65 69 71 69 69 69 67 63 65 66 63 60 60 63 68 73 76 79 80 80 80 80 81 82 82 83
31 31 33 35 36 36 37 38 39 38 39 39 39 39 41 43 45 47 47 46 45 46 45 46 50 53 53 52 53 53 53 53 53 53 54 56 59 60 59 61 63 62 60 62 62 61 60 58 59 61 60 58 59 60 61 64 64 63 62 59 59 62 67 70 69 68 69 71 68 64 65 67 63 59 58 61 66 71 74 77 79 79 79 79 80 81 80 80
32 33 34 36 37 38 38 39 41 41 41 41 41 42 44 45 47 49 50 50 50 49 49 48 49 53 55 56 56 56 54 53 53 53 54 58 62 63 62 62 63 64 64 63 65 65 62 59 59 62 61 60 62 63 64 65 64 62 60 59 61 65 68 69 68 67 69 71 70 67 66 63 60 59 60 62 65 68 72 75 77 77 77 77 77 78 79 79
34 35 36 38 40 41 41 42 43 44 45 45 44 46 48 48 50 50 51 53 53 53 52 50 50 52 55 58 59 59 58 55 55 56 57 60 64 65 64 62 63 65 66 65 67 67 64 62 61 62 61 59 63 66 67 67 67 62 58 59 63 67 68 69 69 69 70 69 68 68 66 61 58 62 64 63 63 66 69 71 73 74 74 74 75 77 78 79
37 38 39 40 43 44 44 45 47 47 47 48 48 50 51 51 52 53 53 54 55 57 56 54 53 54 55 58 61 62 61 59 59 60 60 61 64 65 65 63 63 66 67 68 69 68 67 65 64 64 62 58 62 68 67 68 69 62 57 60 66 70 70 70 68 67 67 67 67 67 67 62 59 62 63 62 62 63 66 68 70 72 72 72 74 76 77 77
40 41 42 42 45 47 47 48 50 50 50 49 50 53 54 53 54 55 54 54 56 59 60 58 57 57 57 59 61 63 64 64 63 63 62 63 65 66 66 66 66 66 67 70 71 70 70 68 67 67 64 60 64 69 68 68 67 59 58 65 70 72 71 68 66 66 67 68 68 66 65 63 61 61 62 63 62 61 62 65 69 71 71 72 73 74 74 74
Wind_Direction
259 259 258 257 256 255 254 253 252 252 251 250 249 248 247 247 247 246 246 246 246 247 247 248 248 249 249 250 250 251 251 251 252 252 252 252 253 253 254 254 254 255 255 255 255 256 256 256 257 257 258 258 259 260 260 261 262 262 263 263 264 264 264 264 264 265 265 266 268 270 272 272 272 271 271 271 270 270 271 272 273 274 274 274 274 273 273 274
259 259 259 258 257 256 255 254 252 251 250 249 248 247 247 246 246 246 246 246 246 246 247 247 248 249 249 250 251 251 251 252 252 252 253 253 253 253 254 254 254 255 255 255 256 256 256 257 257 257 258 258 259 260 260 261 261 262 263 263 263 263 264 264 265 265 266 268 269 271 271 271 271 270 269 268 269 270 272 273 274 274 273 273 274 274 273 274
259 259 259 259 258 257 256 254 253 251 250 249 248 247 246 246 246 246 246 246 246 246 247 247 248 249 249 250 251 252 252 253 253 253 253 254 254 254 254 255 255 255 255 256 256 256 257 257 257 258 258 259 259 260 260 261 261 262 262 263 263 263 264 264 265 266 267 269 270 270 271 270 269 268 267 267 269 271 272 273 273 272 272 273 274 273 272 271
259 259 259 258 257 257 256 255 253 252 251 250 248 247 246 246 246 245 245 246 246 246 247 247 248 249 250 250 251 252 253 253 254 254 254 255 255 255 255 255 256 256 256 256 256 257 257 257 258 258 259 259 259 260 260 261 261 262 262 262 262 263 264 264 266 267 268 268 269 269 268 267 266 267 267 268 269 270 271 271 271 271 272 273 272 271 270 269
259 258 257 256 255 255 255 255 254 253 252 251 249 248 247 246 246 246 245 246 246 246 247 248 248 249 250 251 252 252 253 254 255 255 256 256 256 257 257 257 257 257 257 257 257 257 257 257 258 258 258 259 259 260 260 261 261 261 262 262 262 263 263 264 266 266 267 267 266 265 264 265 266 268 269 267 266 267 269 269 269 269 270 270 269 268 268 268
257 255 254 253 253 253 253 254 255 254 254 252 251 249 248 247 246 246 246 246 246 247 247 248 249 249 250 251 252 253 254 255 256 256 257 257 258 258 258 258 258 258 258 258 258 258 258 258 258 258 258 258 259 259 259 260 261 261 261 261 262 262 263 264 264 265 265 264 263 262 263 265 265 266 265 264 264 266 267 268 268 268 267 267 266 267 268 270
254 252 250 250 250 251 252 253 254 255 255 254 253 251 250 249 248 247 246 246 246 247 247 248 249 249 250 251 252 253 255 256 256 257 258 258 259 259 259 259 259 259 259 259 258 258 258 258 258 258 258 258 258 259 259 259 260 260 260 260 260 261 261 262 262 262 261 261 261 262 262 262 262 263 263 262 264 267 267 267 267 266 264 264 265 267 269 270
251 250 249 250 251 252 253 254 255 255 255 255 254 253 252 251 250 249 248 248 248 248 248 249 249 250 251 252 253 254 255 256 257 258 258 259 259 260 260 260 259 259 259 259 259 258 258 258 258 257 257 258 258 258 258 258 258 258 258 259 259 259 260 261 260 259 258 258 261 262 261 260 261 262 262 262 264 265 265 264 264 264 263 263 264 267 269 269
251 252 253 253 254 255 256 256 256 256 256 255 254 253 252 251 251 250 249 249 249 249 250 250 251 251 252 253 254 255 256 257 258 259 260 260 260 260 261 261 260 260 260 259 259 259 258 258 257 257 257 256 256 256 256 256 256 256 257 258 258 258 259 258 256 255 256 258 259 260 260 259 260 260 261 262 262 262 263 264 265 264 264 264 264 265 267 268
253 255 256 257 258 258 258 258 257 257 257 257 256 255 254 253 252 251 250 250 250 250 251 252 253 253 254 255 256 257 258 258 260 261 261 262 263 263 263 262 262 261 260 260 259 258 258 257 257 256 256 256 255 255 255 255 255 256 256 256 256 256 256 255 254 254 256 258 258 258 259 259 259 260 260 261 261 261 263 265 266 265 263 263 263 264 266 267
255 257 258 259 259 260 259 259 258 258 258 259 258 258 257 256 255 254 253 253 253 253 254 255 255 256 256 257 258 259 259 260 261 263 264 265 266 266 265 264 264 263 262 261 260 259 258 258 257 257 256 255 254 254 254 254 254 254 254 254 254 254 254 254 254 255 256 257 257 257 258 259 259 259 260 260 261 262 264 266 266 264 263 263 264 264 265 266
256 257 258 259 260 261 260 260 260 259 259 260 260 260 260 259 259 258 257 256 256 256 256 256 257 257 258 258 259 260 261 262 264 265 266 267 268 268 268 267 266 265 264 263 262 261 260 259 258 258 257 255 255 255 254 254 253 253 253 253 254 254 254 255 254 254 255 256 257 258 258 259 259 259 259 261 262 264 265 265 265 266 265 263 262 262 264 265
257 258 259 260 261 261 262 262 262 262 262 262 262 262 261 261 261 261 260 259 258 258 257 257 257 257 257 258 258 260 261 262 264 265 267 268 269 269 269 269 268 267 266 265 264 263 262 261 260 259 258 257 257 256 254 254 253 253 254 254 254 254 254 254 254 255 256 257 259 258 258 258 259 259 259 261 264 266 266 264 264 265 265 262 261 261 262 263
258 259 260 261 262 263 263 264 264 264 264 264 264 264 264 263 263 262 261 261 260 260 259 258 258 257 256 257 258 259 260 261 262 264 266 268 269 269 270 270 269 268 266 265 264 264 263 263 261 260 259 258 257 256 255 255 255 255 255 255 254 254 254 254 255 257 256 257 257 257 257 258 258 259 260 262 265 266 264 261 261 263 262 261 260 259 259 261
261 262 262 263 264 265 265 266 266 266 266 266 265 265 265 265 264 263 263 262 261 261 260 259 259 258 257 257 258 258 258 260 261 263 265 266 268 269 269 270 270 268 267 264 263 263 263 264 264 262 262 260 258 258 257 257 257 256 254 254 255 254 254 255 256 257 256 254 255 256 257 257 258 259 259 260 262 262 260 259 260 261 261 259 259 258 259 260
264 265 266 267 268 268 268 268 268 268 268 267 267 266 266 266 265 264 263 262 262 261 260 260 259 259 258 258 258 258 258 259 260 262 263 264 266 267 268 269 269 269 268 266 264 263 263 264 265 265 264 262 261 260 260 258 257 256 256 255 256 256 254 254 254 254 254 253 253 255 256 256 257 257 257 259 260 259 260 260 260 261 262 261 260 259 259 260
266 267 269 270 271 271 270 270 269 268 268 268 268 267 267 266 266 265 264 263 262 261 260 260 259 259 259 258 258 259 258 258 259 260 261 262 264 265 267 267 267 268 268 268 267 265 264 265 265 266 265 263 262 262 262 260 259 260 259 256 253 252 252 250 247 248 252 253 252 253 254 255 255 256 258 258 257 256 260 261 261 262 263 261 259 259 259 259
267 268 270 271 272 272 271 270 269 268 267 267 266 266 267 267 267 266 266 265 263 262 261 260 260 259 259 258 259 258 258 258 258 259 260 261 262 264 265 265 265 265 265 266 266 266 265 265 265 265 264 265 266 266 264 264 265 262 257 253 249 248 250 251 248 247 253 256 254 253 255 256 255 256 259 258 253 250 255 261 264 264 263 262 262 262 261 259
267 269 270 271 272 271 270 269 268 267 266 265 265 265 265 266 267 267 267 266 265 264 262 261 260 260 259 259 258 258 258 258 259 259 260 260 261 262 263 263 263 263 263 263 264 265 264 263 264 264 264 266 267 267 267 266 266 260 255 255 256 255 255 255 254 249 248 254 255 253 256 260 258 254 256 258 253 249 252 257 263 266 267 266 266 265 265 262
267 269 270 271 270 268 267 266 266 266 266 266 266 265 265 266 266 267 268 267 267 266 264 263 261 260 260 259 258 258 259 258 259 260 260 260 260 261 261 262 262 262 262 262 262 262 261 261 262 263 266 267 265 265 265 264 264 262 260 259 260 262 260 256 253 248 240 243 255 260 263 266 265 256 251 252 252 253 259 261 263 267 269 269 267 266 267 267
266 268 269 269 266 265 265 265 266 267 268 268 268 267 266 265 266 267 268 269 269 268 267 265 263 261 260 260 259 258 258 259 260 260 259 259 259 259 260 261 261 262 261 261 261 260 259 260 261 264 264 263 262 261 261 261 262 263 263 262 261 262 263 260 256 252 246 244 253 261 262 264 266 264 258 255 253 251 259 266 266 267 269 268 266 266 267 268
265 267 268 267 264 263 264 266 267 268 269 269 270 269 268 267 266 266 267 268 269 270 269 268 266 264 262 261 260 259 259 259 259 259 258 258 258 259 260 260 260 261 261 260 259 259 259 259 261 264 262 259 260 260 261 261 260 260 260 261 261 260 261 261 260 258 257 256 256 254 253 256 263 268 268 265 260 250 250 261 265 266 267 266 265 265 266 266
264 266 266 266 263 263 264 265 267 268 269 270 270 270 270 269 268 267 267 267 267 268 268 269 268 267 265 264 263 262 260 258 258 259 259 258 259 259 260 261 260 260 261 259 258 258 259 260 261 260 258 257 259 260 260 260 260 259 259 259 259 259 259 259 260 262 261 260 258 255 253 255 260 265 267 266 264 257 249 252 260 264 266 265 265 265 264 264
263 264 265 265 264 263 264 265 266 267 269 270 270 271 271 270 270 269 268 268 268 267 267 267 267 267 267 267 267 265 262 260 259 260 260 258 258 260 259 260 260 260 260 259 259 259 258 259 260 258 256 257 257 257 257 258 260 260 260 259 258 258 258 258 258 259 258 257 256 256 256 259 259 259 262 263 264 261 254 249 256 263 266 266 266 265 262 262
262 264 264 264 264 264 264 264 265 266 267 268 269 270 270 270 270 270 269 269 270 269 268 267 267 267 267 267 267 266 265 262 260 261 263 260 258 258 259 259 260 260 260 259 260 260 259 258 259 259 258 258 257 256 255 256 258 260 261 260 259 258 258 258 257 255 254 254 255 257 258 258 259 258 259 260 260 261 258 253 254 260 266 268 267 265 263 262
261 263 264 264 264 264 264 264 265 265 266 267 268 269 269 270 270 270 270 269 269 270 270 269 269 269 268 268 267 266 264 263 262 262 264 264 261 258 258 259 260 261 260 260 259 259 260 260 260 260 260 260 259 257 257 257 257 259 260 260 260 260 259 258 257 255 253 253 254 257 257 255 257 259 258 258 258 258 258 257 254 255 262 268 268 266 263 263
261 262 263 264 264 265 265 265 265 265 266 266 267 268 268 269 269 269 269 268 267 268 270 270 270 270 270 269 269 268 266 264 264 263 263 264 264 262 260 260 260 261 261 261 260 259 259 259 261 262 262 261 261 260 260 259 258 258 259 259 260 260 261 260 259 257 255 254 255 257 257 254 255 258 258 257 257 257 257 259 258 255 257 262 266 267 265 263
261 261 262 264 265 265 266 266 266 266 266 267 267 267 267 267 268 268 267 267 266 266 268 269 270 269 269 269 269 269 269 267 265 265 265 265 265 264 263 262 261 262 262 262 261 260 259 258 259 262 263 262 262 262 262 262 261 260 259 260 260 260 261 261 261 260 259 257 256 256 256 255 256 258 259 258 257 256 257 258 260 260 258 259 261 263 263 263
261 261 262 263 264 265 266 267 267 267 267 268 268 268 268 268 267 267 267 266 266 266 266 267 268 268 269 270 270 269 269 268 266 266 267 266 265 265 265 264 263 263 263 262 262 261 260 259 258 259 262 263 263 263 263 263 262 262 261 261 261 261 261 260 260 261 261 260 258 256 255 254 255 258 259 259 258 258 257 257 259 261 261 260 260 259 259 260
260 261 262 263 264 265 266 267 267 268 268 268 268 269 269 269 268 268 268 267 268 267 266 266 267 268 268 268 268 268 267 267 266 266 266 267 266 266 266 266 265 265 264 263 263 263 262 261 260 259 260 261 262 263 263 262 262 262 262 262 262 262 262 261 261 261 261 261 260 259 258 256 254 256 259 259 259 260 258 257 257 257 259 260 261 261 259 258
261 261 262 262 264 265 266 267 267 267 268 268 269 269 269 269 269 269 269 269 269 269 268 268 268 268 268 268 267 267 267 265 265 265 265 265 266 266 266 266 266 266 265 264 264 265 265 264 263 262 261 261 261 261 261 262 261 261 262 262 262 262 262 262 262 261 261 261 260 260 260 259 257 257 259 259 259 259 258 257 257 255 255 256 259 261 261 259
261 262 262 263 264 265 266 267 267 267 268 268 268 269 269 269 270 270 270 270 270 270 270 269 269 269 269 268 268 268 267 266 265 265 265 265 264 264 264 264 265 265 265 265 265 266 266 266 265 264 264 264 263 262 262 262 261 261 261 262 261 261 261 261 261 261 260 260 260 260 260 261 260 260 260 261 259 258 257 258 257 256 255 254 256 259 261 261
262 263 263 264 265 266 267 268 268 268 268 269 269 269 270 270 270 271 271 271 271 271 271 271 270 270 270 270 269 267 267 267 266 265 265 266 265 265 264 264 263 263 264 264 264 265 265 265 265 264 264 264 265 265 264 263 263 262 262 262 262 262 262 261 260 260 259 259 261 262 261 260 259 259 260 261 261 260 260 258 257 257 256 254 254 256 258 260
263 264 265 266 267 268 268 269 269 269 270 270 271 271 271 271 271 271 271 272 273 273 272 272 272 271 271 271 270 269 268 268 267 266 265 265 265 266 265 265 264 264 264 264 264 263 264 264 265 265 264 263 264 265 265 264 264 264 264 264 264 263 263 261 261 260 259 259 260 262 262 261 260 260 260 260 261 262 261 260 258 257 257 257 255 254 255 257
265 266 267 268 268 269 269 270 270 271 271 272 272 272 273 273 273 273 273 272 272 274 274 273 272 272 272 272 271 271 270 269 268 268 266 265 264 265 265 265 265 265 265 266 265 265 264 264 264 264 264 263 262 263 265 266 265 264 263 264 263 263 262 262 262 262 261 260 260 261 261 261 261 261 262 262 262 262 262 261 260 258 256 257 257 256 255 255
267 268 269 269 270 270 271 271 272 272 273 273 273 274 274 274 274 274 274 273 273 273 274 275 274 273 273 273 273 271 271 271 271 269 268 266 265 265 265 265 265 264 264 265 266 266 266 266 265 264 265 264 263 263 264 266 267 265 264 263 262 262 262 262 263 263 263 262 261 261 261 260 260 261 263 264 263 263 262 262 262 260 257 255 256 257 257 257
268 269 270 270 271 272 272 273 274 274 274 275 274 274 274 275 275 274 273 273 273 273 274 275 276 275 274 273 273 273 271 271 272 271 269 269 268 267 267 266 266 266 266 266 267 266 265 266 267 266 266 266 265 264 264 264 265 265 265 264 263 262 262 262 261 262 263 263 262 262 262 261 260 260 261 262 262 262 262 261 261 262 261 257 256 257 257 258
270 271 272 273 273 274 275 275 275 275 276 276 276 275 275 274 274 275 275 274 274 275 275 274 274 275 274 273 273 274 273 271 271 273 272 271 270 270 270 269 269 270 269 268 269 269 267 266 268 269 268 268 267 266 264 264 263 263 263 264 264 264 264 263 261 260 261 262 262 261 262 263 262 261 260 260 260 260 260 261 261 262 263 263 260 258 258 257
272 274 274 275 275 275 275 275 276 276 276 277 277 276 277 276 274 275 276 276 275 274 275 274 274 273 274 274 274 275 275 273 271 271 273 273 271 271 271 271 272 274 273 271 269 269 269 269 271 273 273 272 271 269 267 265 265 265 265 265 265 265 265 265 264 262 261 261 261 260 261 262 262 262 261 260 260 260 260 260 261 262 263 264 263 262 260 259
274 275 275 275 275 275 275 275 276 276 277 277 278 277 276 276 275 274 275 277 278 277 274 273 274 274 274 275 275 276 278 278 276 272 273 274 274 273 273 274 275 275 275 274 271 269 269 271 272 273 274 274 274 273 271 269 268 268 267 266 267 267 267 267 266 266 265 263 262 261 260 260 261 261 261 260 260 260 261 261 262 262 261 262 262 262 262 261
274 275 274 274 275 274 275 275 275 276 276 275 275 274 273 273 274 273 271 272 276 279 279 277 276 276 275 275 276 277 279 281 282 281 279 279 278 276 277 279 280 278 275 275 274 274 274 273 271 270 272 274 275 275 275 274 272 270 268 266 267 268 270 270 270 270 269 266 265 263 261 260 261 262 262 261 260 260 261 261 262 261 260 260 260 261 261 260
274 274 274 275 274 274 275 275 274 274 273 272 270 269 267 268 271 273 272 270 270 273 277 279 279 278 277 277 277 279 280 281 284 285 284 284 283 281 281 282 281 281 280 278 278 278 278 276 273 272 273 275 276 277 276 275 273 272 271 271 271 271 272 273 272 271 270 269 268 266 263 260 259 260 260 261 262 261 261 261 260 260 259 258 258 258 259 260
273 274 275 274 274 274 274 273 271 270 268 268 269 269 267 265 267 270 273 274 271 270 272 276 278 278 278 278 278 279 279 280 282 283 284 285 284 284 284 282 280 281 283 282 281 281 279 276 275 275 276 276 277 277 277 275 274 274 275 276 276 275 274 273 272 271 270 269 270 269 266 262 260 260 260 261 261 262 261 260 259 259 259 258 257 257 258 259
273 273 273 272 272 272 271 270 270 269 267 265 266 269 270 269 268 268 271 275 275 272 272 275 278 279 279 279 280 280 280 280 281 281 283 284 284 285 284 283 282 282 282 281 281 281 280 279 278 277 276 277 277 277 276 276 276 277 279 279 278 277 276 276 275 273 271 270 270 268 267 264 262 262 263 262 261 261 261 260 259 258 258 259 259 258 258 258
272 271 270 270 270 268 267 267 268 269 270 270 269 271 272 272 273 271 271 275 278 277 275 275 276 278 279 280 281 281 282 282 282 283 284 284 285 286 285 283 282 281 281 280 279 279 280 281 280 278 277 277 276 275 275 276 278 279 279 280 280 280 280 278 277 275 273 271 269 268 268 266 264 262 263 264 263 261 260 260 259 258 258 258 259 259 258 258
270 269 268 268 269 269 269 269 269 270 271 272 272 273 274 274 275 274 271 271 275 278 279 279 278 277 279 280 281 282 283 284 284 285 285 285 286 285 285 283 281 281 281 280 279 280 280 279 279 279 279 277 274 273 274 276 277 279 279 280 281 282 281 279 277 275 274 272 270 270 271 269 266 264 263 263 262 260 259 259 260 260 260 260 259 259 258 258
269 269 269 269 270 271 272 272 272 272 273 274 273 275 277 278 278 279 277 273 272 275 279 282 283 282 281 282 282 282 283 284 285 286 286 286 285 283 283 283 283 282 281 281 281 282 280 279 279 278 277 276 274 273 274 275 277 278 279 279 280 281 279 278 277 277 277 276 274 273 272 269 265 262 261 261 261 261 260 260 260 260 260 260 259 258 258 258
272 273 273 274 274 273 273 274 273 273 274 275 277 278 280 282 283 283 283 282 279 278 279 282 285 286 286 284 283 282 282 283 284 286 286 284 282 280 281 282 283 284 282 281 281 280 279 279 279 278 277 276 275 274 273 274 275 276 278 279 280 278 277 277 278 279 279 278 275 272 270 268 267 265 262 260 260 260 261 261 261 261 260 260 261 261 260 259
276 276 275 276 276 276 276 276 277 278 277 278 280 282 282 283 284 285 286 286 285 284 283 282 284 286 286 285 284 282 282 283 284 284 284 282 281 281 281 282 283 283 282 281 280 278 278 278 277 276 277 277 277 276 274 274 274 275 277 279 278 277 277 277 278 276 274 273 273 272 270 271 272 270 265 260 259 259 260 261 262 263 263 263 263 263 263 261
276 276 277 278 279 279 280 281 282 283 283 284 284 284 284 284 285 285 286 287 287 286 285 284 284 284 284 284 284 283 283 283 283 281 280 280 281 282 283 283 282 282 281 280 279 279 278 277 275 274 274 276 277 276 275 275 275 275 278 279 278 277 276 275 274 273 272 273 274 274 272 270 269 267 265 263 262 262 262 263 263 263 263 263 263 263 263 262
277 278 279 281 283 283 284 284 284 283 284 285 285 285 285 285 286 286 287 287 288 288 287 286 285 284 283 284 284 284 285 284 282 280 280 280 281 282 282 282 281 280 281 280 279 279 278 276 275 274 273 273 273 273 274 275 276 278 282 280 277 274 273 273 274 275 276 275 274 273 272 270 267 266 267 267 265 263 264 264 264 264 263 262 262 262 262 263
280 281 282 282 283 283 282 282 282 282 283 283 284 284 285 285 286 286 286 286 287 287 287 287 286 285 284 284 284 286 285 283 281 281 282 282 282 282 282 281 280 280 280 279 279 279 278 277 276 275 274 272 271 271 271 272 275 281 280 275 272 273 274 276 277 277 275 274 272 272 272 272 271 269 269 268 266 265 264 264 264 263 262 261 261 261 263 263
Height
10642 10642 10642 10642 10643 10644 10645 10646 10648 10649 10650 10652 10654 10656 10659 10661 10664 10667 10670 10673 10677 10679 10682 10684 10687 10689 10692 10695 10697 10698 10699 10701 10702 10703 10705 10707 10709 10712 10712 10714 10718 10719 10721 10724 10726 10728 10731 10733 10734 10736 10737 10738 10738 10740 10742 10742 10745 10748 10751 10753 10754 10752 10749 10746 10743 10745 10743 10746 10752 10757 10768 10770 10769 10769 10761 10756 10751 10751 10753 10759 10770 10773 10774 10777 10779 10778 10772 10771
10638 10638 10638 10638 10639 10639 10640 10641 10643 10644 10645 10647 10649 10651 10653 10655 10658 10660 10663 10666 10669 10672 10674 10677 10680 10683 10685 10687 10688 10690 10692 10693 10693 10695 10698 10699 10701 10703 10704 10706 10709 10710 10712 10714 10716 10718 10721 10723 10724 10725 10727 10728 10729 10733 10733 10733 10737 10739 10741 10743 10743 10739 10737 10736 10734 10739 10739 10743 10752 10754 10758 10755 10753 10757 10752 10743 10738 10743 10748 10753 10764 10764 10761 10764 10770 10769 10767 10767
10634 10634 10634 10635 10635 10635 10636 10637 10638 10639 10641 10642 10644 10646 10648 10650 10652 10655 10657 10660 10663 10665 10668 10670 10673 10676 10677 10679 10681 10682 10684 10684 10685 10688 10690 10691 10693 10695 10697 10698 10700 10701 10703 10706 10707 10709 10711 10713 10714 10716 10717 10719 10721 10723 10722 10725 10728 10729 10732 10733 10730 10727 10729 10726 10725 10734 10735 10741 10748 10745 10747 10743 10738 10742 10739 10733 10732 10737 10741 10747 10753 10753 10752 10754 10759 10760 10760 10760
10631 10631 10631 10631 10632 10632 10633 10633 10634 10635 10637 10638 10640 10642 10643 10645 10648 10650 10652 10655 10657 10659 10661 10664 10666 10668 10670 10672 10674 10674 10675 10677 10679 10681 10682 10683 10685 10687 10689 10690 10691 10693 10695 10697 10699 10700 10702 10703 10705 10707 10708 10709 10711 10712 10713 10716 10717 10720 10724 10721 10718 10720 10721 10717 10721 10731 10730 10735 10740 10735 10734 10729 10724 10727 10731 10729 10725 10728 10732 10739 10745 10745 10744 10746 10748 10748 10747 10746
10628 10628 10628 10628 10629 10629 10630 10631 10631 10632 10634 10635 10636 10638 10640 10641 10643 10645 10648 10650 10652 10654 10656 10658 10660 10662 10664 10665 10666 10667 10669 10671 10672 10673 10674 10676 10677 10679 10681 10682 10684 10685 10686 10688 10690 10692 10693 10695 10696 10698 10699 10700 10701 10702 10705 10706 10707 10711 10713 10709 10710 10712 10710 10712 10719 10723 10721 10724 10727 10722 10717 10718 10717 10718 10725 10722 10713 10717 10722 10729 10739 10740 10739 10738 10735 10732 10733 10734
10625 10625 10625 10626 10626 10627 10628 10628 10629 10630 10631 10632 10633 10635 10636 10638 10640 10641 10643 10645 10647 10649 10651 10652 10654 10656 10657 10659 10660 10661 10663 10664 10665 10667 10668 10669 10670 10671 10673 10674 10675 10676 10678 10679 10681 10683 10684 10686 10687 10688 10689 10690 10692 10693 10695 10697 10699 10702 10700 10699 10704 10702 10701 10708 10713 10713 10713 10709 10707 10710 10709 10713 10714 10711 10715 10706 10700 10710 10715 10720 10729 10735 10736 10729 10721 10716 10721 10730
10622 10623 10623 10624 10624 10625 10626 10627 10627 10628 10629 10630 10631 10632 10633 10635 10636 10638 10639 10641 10643 10644 10646 10647 10648 10650 10651 10653 10654 10656 10657 10658 10659 10660 10661 10662 10662 10663 10664 10665 10666 10668 10669 10670 10672 10673 10675 10676 10677 10678 10680 10681 10683 10685 10686 10689 10691 10691 10689 10690 10695 10694 10693 10702 10706 10704 10702 10692 10690 10703 10707 10706 10703 10702 10704 10694 10695 10705 10706 10712 10717 10726 10729 10720 10714 10707 10712 10727
10620 10621 10621 10622 10623 10623 10624 10625 10625 10626 10627 10628 10629 10630 10631 10632 10633 10635 10636 10637 10639 10640 10641 10642 10644 10645 10646 10648 10649 10650 10652 10652 10653 10654 10654 10655 10655 10656 10657 10657 10658 10660 10661 10662 10663 10664 10665 10667 10668 10669 10671 10673 10675 10676 10677 10679 10681 10679 10679 10682 10684 10685 10687 10696 10699 10691 10686 10681 10685 10696 10698 10697 10694 10694 10694 10687 10695 10697 10692 10701 10709 10716 10718 10714 10712 10703 10705 10718
10618 10619 10619 10620 10621 10621 10622 10623 10624 10624 10625 10626 10627 10627 10628 10629 10631 10632 10633 10634 10635 10636 10637 10638 10639 10641 10642 10644 10645 10646 10646 10647 10648 10648 10648 10649 10649 10650 10650 10651 10651 10652 10653 10654 10655 10655 10657 10657 10659 10660 10662 10664 10665 10666 10668 10670 10670 10669 10671 10674 10675 10678 10680 10686 10687 10677 10673 10676 10682 10687 10687 10688 10686 10687 10687 10683 10687 10685 10681 10691 10701 10707 10708 10708 10709 10700 10699 10707
10616 10617 10617 10618 10619 10619 10620 10621 10621 10622 10623 10624 10624 10625 10626 10627 10628 10629 10630 10631 10632 10633 10634 10635 10636 10637 10638 10640 10640 10641 10641 10642 10643 10643 10643 10643 10644 10644 10644 10645 10645 10645 10646 10646 10647 10647 10648 10649 10650 10652 10654 10657 10656 10656 10660 10660 10661 10663 10665 10665 10666 10671 10670 10672 10673 10668 10668 10673 10676 10678 10678 10678 10678 10680 10681 10675 10673 10676 10680 10684 10691 10697 10698 10701 10701 10697 10694 10698
10614 10614 10615 10616 10616 10617 10617 10618 10619 10619 10620 10621 10621 10622 10623 10624 10624 10625 10626 10627 10629 10629 10630 10631 10632 10633 10634 10636 10636 10636 10637 10638 10638 10638 10639 10639 10639 10639 10639 10639 10639 10640 10640 10640 10640 10640 10641 10642 10643 10645 10647 10648 10646 10648 10651 10650 10653 10657 10655 10654 10658 10662 10660 10663 10663 10662 10664 10666 10668 10671 10671 10670 10671 10673 10672 10664 10662 10673 10683 10680 10676 10681 10690 10695 10694 10691 10688 10691
10612 10612 10612 10613 10613 10614 10615 10615 10616 10616 10617 10618 10618 10619 10620 10620 10621 10622 10623 10624 10625 10626 10627 10627 10628 10629 10631 10632 10631 10632 10633 10634 10634 10635 10635 10635 10635 10635 10635 10635 10634 10635 10634 10634 10634 10634 10636 10636 10637 10638 10638 10639 10640 10642 10643 10641 10646 10648 10644 10647 10652 10653 10654 10656 10653 10655 10659 10658 10662 10666 10664 10663 10663 10666 10663 10656 10657 10671 10681 10674 10663 10667 10682 10690 10687 10684 10682 10684
10609 10609 10610 10610 10611 10611 10612 10612 10613 10613 10614 10615 10615 10616 10616 10617 10617 10618 10620 10621 10622 10623 10623 10624 10625 10626 10627 10627 10627 10628 10629 10630 10630 10631 10631 10631 10631 10631 10631 10631 10630 10630 10630 10630 10629 10630 10631 10631 10632 10632 10631 10634 10635 10634 10634 10635 10639 10639 10639 10643 10645 10646 10648 10646 10645 10650 10654 10654 10658 10657 10655 10656 10655 10658 10657 10652 10656 10668 10673 10666 10655 10658 10671 10679 10679 10679 10677 10678
10606 10607 10607 10607 10608 10608 10609 10609 10610 10610 10611 10611 10612 10612 10613 10613 10614 10615 10616 10617 10618 10619 10620 10620 10621 10622 10623 10623 10624 10625 10625 10626 10626 10627 10627 10628 10627 10627 10627 10627 10627 10627 10626 10626 10625 10625 10626 10626 10627 10626 10627 10630 10628 10627 10629 10631 10632 10634 10636 10637 10637 10640 10640 10638 10641 10646 10650 10651 10651 10648 10649 10649 10648 10653 10653 10650 10656 10663 10662 10655 10649 10652 10662 10668 10671 10672 10672 10673
10603 10604 10604 10604 10605 10605 10606 10606 10606 10607 10607 10608 10608 10609 10609 10609 10610 10610 10612 10613 10614 10615 10616 10616 10617 10618 10619 10620 10620 10621 10621 10621 10623 10623 10624 10624 10624 10624 10624 10624 10623 10623 10623 10622 10622 10622 10622 10623 10623 10623 10624 10625 10623 10622 10625 10627 10627 10628 10630 10631 10631 10635 10634 10634 10639 10642 10642 10644 10643 10643 10643 10641 10644 10649 10648 10647 10655 10656 10650 10647 10645 10646 10653 10660 10664 10665 10666 10668
10600 10601 10601 10601 10602 10602 10602 10602 10603 10603 10603 10604 10604 10605 10605 10605 10605 10606 10607 10608 10609 10610 10611 10612 10612 10613 10615 10615 10615 10616 10617 10617 10619 10619 10619 10620 10620 10620 10620 10620 10620 10620 10619 10619 10619 10619 10619 10619 10619 10619 10620 10620 10619 10619 10622 10623 10623 10624 10626 10628 10628 10630 10629 10630 10636 10636 10634 10638 10639 10640 10637 10634 10640 10644 10642 10645 10651 10650 10643 10641 10640 10640 10646 10654 10657 10658 10660 10663
10597 10597 10598 10598 10598 10598 10599 10599 10599 10599 10600 10600 10600 10601 10601 10601 10601 10601 10602 10603 10605 10605 10606 10607 10608 10609 10610 10610 10610 10611 10612 10613 10614 10614 10615 10616 10616 10616 10616 10617 10616 10616 10616 10616 10616 10616 10616 10616 10616 10616 10617 10617 10616 10617 10619 10618 10620 10622 10622 10624 10624 10623 10622 10624 10631 10631 10629 10632 10635 10635 10631 10628 10635 10638 10638 10642 10646 10645 10638 10634 10635 10637 10642 10647 10650 10652 10654 10657
10594 10594 10594 10595 10595 10595 10595 10595 10595 10596 10596 10596 10596 10597 10597 10597 10597 10597 10597 10598 10599 10600 10601 10602 10603 10604 10605 10605 10606 10605 10606 10608 10609 10610 10610 10611 10611 10612 10612 10612 10613 10613 10613 10613 10613 10613 10613 10613 10612 10613 10613 10613 10614 10614 10615 10616 10618 10618 10617 10617 10618 10618 10618 10620 10627 10629 10628 10629 10631 10630 10625 10623 10632 10635 10634 10637 10640 10640 10635 10631 10631 10634 10637 10640 10644 10646 10648 10652
10590 10591 10591 10591 10591 10591 10591 10591 10591 10592 10592 10592 10593 10593 10593 10593 10593 10593 10593 10594 10594 10595 10596 10597 10598 10599 10599 10600 10600 10600 10602 10603 10604 10605 10606 10606 10607 10608 10608 10608 10609 10608 10609 10609 10609 10610 10609 10609 10609 10609 10610 10611 10611 10611 10612 10614 10613 10611 10613 10614 10614 10615 10615 10618 10624 10627 10627 10626 10624 10625 10622 10620 10627 10632 10631 10632 10635 10636 10633 10630 10628 10629 10633 10636 10639 10640 10642 10647
10587 10587 10588 10588 10587 10587 10587 10587 10588 10588 10588 10589 10589 10590 10590 10590 10590 10589 10589 10590 10590 10591 10592 10592 10593 10594 10594 10594 10594 10596 10598 10598 10600 10601 10601 10601 10602 10603 10603 10604 10604 10604 10605 10606 10606 10606 10605 10605 10606 10606 10608 10608 10607 10608 10609 10609 10607 10607 10610 10611 10612 10612 10611 10615 10620 10620 10623 10624 10621 10622 10621 10618 10621 10625 10627 10628 10631 10632 10630 10628 10626 10626 10629 10632 10634 10635 10637 10641
10584 10584 10584 10584 10584 10584 10584 10584 10584 10585 10585 10585 10586 10586 10587 10587 10587 10586 10586 10586 10586 10586 10587 10588 10588 10589 10588 10587 10589 10592 10593 10595 10597 10596 10595 10595 10596 10598 10598 10599 10599 10599 10601 10602 10602 10602 10601 10601 10601 10604 10606 10604 10603 10605 10606 10605 10603 10604 10606 10607 10608 10608 10607 10611 10614 10615 10619 10622 10621 10621 10619 10616 10615 10617 10621 10625 10629 10631 10629 10625 10623 10622 10625 10628 10629 10630 10633 10635
10580 10580 10580 10580 10580 10580 10580 10580 10581 10581 10582 10582 10582 10583 10583 10583 10584 10583 10584 10583 10583 10583 10583 10583 10584 10584 10583 10583 10584 10587 10589 10591 10591 10589 10588 10590 10591 10593 10593 10593 10594 10594 10596 10598 10598 10597 10597 10597 10598 10601 10601 10599 10599 10601 10602 10600 10600 10601 10602 10603 10604 10603 10604 10606 10608 10612 10616 10618 10618 10617 10614 10614 10613 10612 10615 10620 10623 10627 10628 10624 10619 10618 10620 10622 10624 10627 10629 10629
10576 10577 10577 10577 10577 10577 10577 10577 10577 10577 10578 10578 10579 10579 10579 10580 10580 10580 10580 10580 10579 10579 10579 10579 10580 10579 10578 10579 10580 10582 10585 10586 10585 10583 10582 10584 10587 10589 10589 10587 10588 10589 10590 10592 10593 10593 10593 10592 10594 10596 10595 10593 10596 10598 10597 10595 10594 10596 10598 10599 10599 10598 10599 10601 10604 10609 10612 10613 10612 10609 10609 10613 10613 10610 10610 10613 10617 10620 10623 10621 10616 10614 10614 10615 10619 10623 10625 10625
10573 10573 10573 10573 10573 10573 10573 10574 10574 10574 10574 10575 10575 10575 10575 10576 10576 10576 10577 10576 10575 10576 10576 10575 10576 10575 10574 10576 10576 10578 10579 10581 10581 10577 10575 10579 10583 10584 10583 10582 10583 10584 10585 10586 10589 10589 10589 10589 10589 10590 10589 10589 10592 10593 10591 10590 10590 10591 10592 10594 10594 10593 10594 10596 10601 10604 10606 10608 10605 10601 10607 10612 10609 10606 10606 10608 10610 10612 10614 10616 10614 10611 10609 10609 10614 10618 10619 10621
10569 10569 10569 10569 10570 10570 10570 10570 10570 10570 10570 10571 10571 10571 10571 10572 10572 10572 10573 10573 10571 10571 10572 10571 10572 10571 10571 10572 10573 10573 10574 10576 10576 10572 10569 10574 10579 10579 10577 10577 10577 10578 10578 10581 10584 10584 10583 10584 10584 10583 10584 10585 10587 10586 10586 10586 10586 10587 10588 10588 10588 10589 10589 10592 10595 10598 10600 10602 10598 10597 10604 10608 10602 10601 10603 10603 10605 10606 10607 10611 10611 10608 10604 10604 10608 10612 10613 10615
10564 10565 10565 10565 10566 10566 10566 10566 10566 10566 10566 10567 10567 10567 10567 10568 10568 10568 10568 10569 10568 10567 10567 10567 10567 10568 10567 10568 10568 10569 10570 10571 10571 10569 10566 10568 10572 10572 10572 10572 10572 10571 10572 10576 10579 10578 10578 10579 10579 10578 10579 10580 10580 10580 10581 10583 10583 10584 10583 10581 10582 10583 10583 10587 10589 10591 10595 10595 10593 10594 10599 10602 10597 10594 10597 10598 10599 10600 10600 10604 10605 10605 10603 10600 10601 10605 10607 10609
10560 10560 10561 10561 10561 10561 10562 10562 10562 10562 10562 10562 10562 10563 10563 10563 10563 10564 10564 10564 10564 10563 10563 10562 10563 10563 10563 10564 10564 10564 10565 10566 10566 10564 10562 10564 10565 10565 10566 10567 10567 10565 10566 10571 10572 10572 10572 10574 10575 10573 10574 10575 10574 10574 10576 10578 10579 10580 10578 10576 10577 10577 10577 10581 10583 10585 10588 10590 10591 10591 10590 10594 10593 10589 10590 10593 10594 10595 10597 10597 10597 10600 10602 10599 10596 10597 10599 10601
10556 10556 10556 10556 10556 10557 10557 10557 10558 10558 10558 10557 10558 10558 10558 10559 10559 10559 10559 10559 10559 10560 10559 10558 10558 10559 10558 10558 10560 10560 10560 10561 10561 10559 10558 10560 10560 10559 10560 10561 10561 10559 10561 10565 10564 10564 10566 10569 10572 10569 10567 10569 10569 10569 10571 10572 10573 10574 10572 10571 10572 10572 10573 10575 10577 10578 10580 10585 10588 10584 10582 10587 10590 10585 10583 10586 10589 10591 10594 10593 10591 10594 10597 10595 10593 10592 10591 10593
10551 10551 10551 10552 10552 10552 10552 10553 10553 10553 10553 10553 10553 10553 10553 10553 10553 10553 10554 10554 10554 10555 10555 10554 10553 10553 10554 10554 10554 10555 10555 10555 10556 10555 10554 10554 10554 10554 10554 10555 10555 10554 10556 10558 10557 10556 10559 10563 10567 10564 10561 10562 10562 10563 10565 10566 10567 10566 10566 10566 10565 10566 10567 10569 10571 10571 10573 10579 10579 10574 10575 10583 10586 10580 10576 10578 10582 10586 10589 10589 10588 10589 10589 10587 10585 10586 10586 10587
10546 10546 10546 10547 10547 10547 10547 10548 10548 10548 10548 10547 10547 10548 10548 10548 10548 10547 10547 10548 10548 10548 10549 10549 10548 10547 10548 10549 10548 10548 10549 10549 10550 10550 10549 10549 10549 10549 10549 10548 10549 10549 10550 10551 10549 10550 10552 10556 10559 10558 10556 10556 10556 10557 10557 10558 10561 10559 10558 10560 10559 10559 10560 10563 10565 10565 10568 10571 10567 10564 10569 10576 10581 10575 10568 10571 10577 10579 10581 10582 10582 10584 10583 10580 10576 10577 10580 10583
10541 10541 10541 10542 10542 10542 10542 10543 10543 10543 10542 10542 10542 10542 10543 10542 10542 10542 10541 10542 10542 10541 10542 10544 10543 10541 10542 10543 10542 10542 10543 10543 10544 10544 10543 10543 10542 10543 10543 10543 10543 10542 10543 10544 10544 10545 10547 10549 10551 10550 10550 10550 10549 10550 10550 10550 10553 10552 10551 10552 10553 10552 10553 10556 10557 10557 10561 10561 10556 10558 10562 10567 10574 10570 10562 10565 10570 10571 10572 10573 10575 10577 10578 10576 10571 10569 10572 10576
10536 10536 10536 10536 10537 10537 10538 10538 10538 10538 10537 10537 10537 10537 10537 10537 10536 10536 10535 10535 10535 10534 10535 10537 10536 10535 10535 10536 10536 10536 10535 10535 10537 10537 10537 10537 10536 10536 10536 10537 10537 10534 10534 10537 10538 10540 10541 10541 10543 10544 10542 10541 10542 10543 10543 10543 10545 10546 10545 10545 10545 10544 10544 10547 10548 10549 10553 10551 10548 10551 10555 10561 10565 10561 10556 10557 10559 10562 10564 10566 10568 10568 10569 10571 10568 10564 10563 10566
10531 10531 10531 10531 10532 10532 10532 10532 10532 10532 10532 10532 10532 10532 10532 10531 10531 10530 10529 10529 10528 10527 10529 10530 10529 10529 10529 10528 10528 10529 10529 10527 10529 10531 10531 10530 10529 10529 10529 10529 10530 10527 10526 10530 10532 10533 10533 10533 10535 10537 10536 10535 10535 10535 10535 10535 10536 10539 10538 10537 10537 10537 10536 10538 10539 10540 10543 10543 10541 10544 10548 10554 10555 10552 10550 10548 10549 10554 10556 10557 10559 10558 10559 10562 10563 10560 10559 10559
10527 10527 10526 10527 10527 10527 10527 10527 10527 10527 10526 10526 10526 10526 10526 10525 10525 10524 10523 10523 10521 10520 10522 10523 10522 10521 10522 10521 10519 10521 10522 10520 10521 10524 10525 10524 10522 10522 10521 10520 10521 10520 10519 10522 10525 10526 10526 10527 10527 10526 10527 10529 10529 10527 10525 10526 10529 10532 10530 10528 10530 10528 10525 10528 10529 10531 10535 10536 10537 10538 10539 10544 10545 10542 10542 10541 10542 10545 10544 10545 10548 10550 10550 10550 10553 10554 10554 10555
10522 10522 10522 10522 10522 10522 10522 10521 10521 10521 10521 10521 10520 10520 10519 10519 10518 10517 10516 10517 10516 10513 10513 10515 10516 10514 10515 10513 10511 10513 10514 10511 10513 10516 10516 10516 10516 10515 10514 10512 10513 10513 10512 10513 10516 10517 10518 10520 10519 10517 10517 10519 10522 10520 10518 10518 10519 10523 10522 10521 10521 10517 10514 10518 10521 10523 10525 10528 10532 10532 10531 10536 10536 10533 10533 10535 10536 10535 10534 10534 10535 10539 10542 10540 10541 10545 10546 10547
10517 10517 10517 10516 10516 10516 10516 10516 10516 10515 10515 10515 10514 10514 10513 10512 10512 10511 10509 10509 10510 10509 10506 10506 10508 10508 10508 10506 10503 10504 10506 10504 10505 10507 10507 10507 10508 10507 10506 10505 10505 10505 10506 10507 10508 10508 10511 10511 10509 10508 10508 10509 10512 10514 10514 10512 10509 10509 10511 10511 10509 10506 10505 10509 10513 10514 10513 10517 10524 10524 10522 10527 10529 10528 10529 10527 10526 10525 10523 10524 10522 10523 10528 10532 10534 10536 10536 10537
10512 10512 10512 10512 10511 10511 10511 10511 10510 10510 10509 10508 10508 10507 10507 10506 10505 10504 10503 10502 10503 10503 10502 10500 10499 10500 10500 10499 10496 10496 10499 10499 10497 10498 10499 10499 10500 10499 10498 10497 10496 10497 10499 10502 10500 10500 10504 10503 10499 10499 10500 10498 10501 10506 10508 10506 10500 10498 10499 10498 10495 10495 10496 10500 10504 10505 10503 10506 10514 10514 10512 10517 10521 10524 10523 10518 10516 10515 10512 10513 10513 10511 10513 10522 10528 10528 10528 10529
10508 10507 10507 10507 10506 10505 10505 10505 10504 10503 10503 10502 10501 10501 10501 10500 10499 10498 10496 10496 10497 10496 10496 10495 10494 10493 10493 10493 10491 10488 10491 10494 10493 10491 10491 10492 10493 10492 10490 10490 10490 10490 10492 10494 10493 10491 10495 10497 10493 10491 10490 10489 10491 10496 10498 10496 10491 10488 10488 10488 10484 10483 10486 10489 10492 10496 10495 10496 10503 10506 10504 10506 10512 10515 10512 10507 10506 10505 10501 10502 10505 10505 10504 10509 10518 10519 10519 10521
10502 10502 10501 10501 10501 10500 10499 10499 10498 10497 10497 10496 10495 10495 10494 10492 10493 10494 10490 10489 10490 10491 10490 10489 10488 10488 10487 10487 10486 10483 10483 10486 10488 10487 10485 10485 10487 10486 10483 10485 10485 10484 10484 10485 10486 10485 10486 10490 10490 10484 10481 10481 10481 10484 10486 10485 10481 10478 10480 10480 10476 10473 10476 10477 10478 10484 10488 10487 10492 10497 10497 10499 10502 10501 10498 10496 10495 10493 10493 10495 10498 10501 10499 10499 10504 10508 10509 10511
10497 10496 10495 10495 10495 10494 10493 10493 10493 10491 10491 10491 10489 10489 10489 10486 10486 10488 10486 10484 10483 10483 10485 10484 10483 10483 10483 10481 10481 10479 10478 10478 10479 10481 10481 10479 10480 10479 10478 10480 10480 10477 10477 10476 10476 10478 10480 10484 10486 10479 10473 10473 10473 10472 10473 10473 10472 10469 10470 10471 10467 10464 10466 10466 10468 10474 10476 10475 10480 10484 10488 10493 10493 10489 10486 10485 10484 10483 10485 10488 10490 10491 10491 10490 10491 10494 10496 10498
10492 10490 10489 10489 10489 10488 10488 10488 10487 10486 10486 10486 10484 10483 10484 10482 10480 10481 10482 10481 10479 10477 10477 10478 10478 10477 10477 10477 10476 10475 10474 10473 10472 10473 10474 10472 10472 10473 10473 10476 10474 10469 10469 10469 10468 10471 10474 10476 10478 10474 10468 10468 10467 10464 10463 10463 10461 10457 10458 10461 10460 10459 10459 10458 10460 10464 10461 10461 10467 10470 10476 10486 10485 10478 10473 10470 10471 10476 10478 10479 10478 10477 10478 10479 10480 10481 10482 10484
10487 10485 10484 10484 10483 10482 10483 10482 10482 10481 10481 10481 10479 10478 10479 10478 10475 10475 10475 10476 10477 10475 10472 10472 10472 10472 10472 10471 10471 10470 10469 10469 10467 10466 10466 10464 10463 10465 10467 10469 10467 10462 10461 10461 10462 10465 10466 10464 10467 10466 10464 10463 10461 10457 10454 10452 10449 10446 10448 10453 10453 10453 10453 10449 10450 10453 10449 10448 10454 10454 10459 10473 10475 10466 10461 10460 10462 10466 10468 10466 10464 10461 10462 10464 10467 10470 10470 10470
10481 10480 10478 10478 10477 10477 10477 10476 10476 10476 10476 10476 10474 10472 10473 10473 10471 10471 10470 10469 10471 10471 10469 10468 10467 10466 10466 10465 10465 10465 10463 10464 10463 10460 10460 10458 10455 10457 10459 10459 10459 10457 10455 10453 10453 10456 10455 10453 10457 10459 10457 10457 10455 10450 10445 10440 10437 10439 10443 10446 10445 10444 10443 10439 10439 10441 10439 10440 10443 10438 10440 10457 10464 10455 10452 10453 10453 10453 10453 10452 10449 10447 10447 10449 10454 10459 10461 10460
10476 10475 10473 10472 10472 10472 10472 10471 10471 10470 10470 10471 10470 10467 10467 10467 10466 10467 10467 10464 10464 10465 10465 10464 10461 10460 10460 10459 10459 10458 10457 10458 10458 10455 10455 10452 10448 10449 10450 10449 10451 10451 10449 10447 10445 10446 10445 10444 10448 10451 10450 10450 10448 10442 10435 10429 10428 10433 10437 10437 10436 10434 10433 10431 10429 10428 10428 10432 10432 10424 10426 10442 10451 10446 10442 10442 10443 10443 10439 10435 10435 10435 10435 10437 10441 10446 10449 10450
10471 10470 10468 10467 10466 10467 10467 10466 10466 10465 10464 10464 10464 10463 10462 10462 10460 10461 10464 10461 10457 10458 10460 10459 10456 10454 10454 10453 10453 10452 10450 10450 10450 10449 10449 10446 10443 10442 10441 10440 10442 10442 10441 10439 10438 10438 10438 10436 10437 10439 10442 10444 10441 10433 10425 10421 10422 10426 10428 10428 10427 10426 10424 10421 10418 10415 10416 10420 10419 10414 10417 10430 10438 10437 10434 10432 10432 10431 10425 10420 10420 10421 10424 10428 10431 10433 10435 10437
10465 10465 10464 10462 10462 10462 10461 10461 10461 10460 10459 10459 10459 10457 10456 10457 10455 10454 10457 10457 10453 10452 10453 10452 10450 10449 10448 10447 10447 10446 10444 10442 10443 10443 10441 10439 10437 10434 10431 10429 10431 10434 10434 10429 10428 10431 10431 10430 10428 10427 10432 10435 10432 10426 10419 10414 10415 10418 10420 10421 10421 10419 10414 10408 10404 10403 10404 10405 10406 10409 10411 10416 10424 10427 10426 10422 10418 10414 10410 10408 10408 10410 10414 10418 10420 10420 10422 10423
10460 10461 10459 10458 10457 10457 10456 10456 10456 10455 10454 10454 10455 10453 10451 10451 10449 10447 10448 10450 10449 10447 10447 10445 10441 10440 10441 10441 10439 10438 10437 10436 10436 10436 10433 10432 10429 10425 10423 10419 10418 10424 10426 10420 10419 10422 10422 10422 10420 10418 10421 10423 10420 10418 10413 10407 10407 10411 10412 10414 10415 10411 10404 10395 10391 10393 10394 10392 10396 10404 10402 10400 10408 10415 10415 10411 10405 10400 10399 10398 10398 10401 10403 10405 10405 10406 10410 10412
10455 10456 10455 10453 10452 10452 10451 10451 10450 10450 10449 10448 10449 10448 10447 10445 10443 10440 10440 10441 10441 10440 10441 10440 10436 10431 10431 10432 10431 10430 10430 10431 10430 10429 10426 10422 10418 10416 10417 10414 10410 10412 10415 10412 10411 10412 10412 10414 10411 10407 10410 10412 10409 10407 10405 10400 10400 10402 10404 10407 10407 10401 10391 10385 10385 10388 10385 10380 10383 10391 10389 10386 10394 10403 10405 10401 10394 10390 10389 10386 10387 10391 10393 10394 10394 10396 10400 10403
10451 10451 10450 10449 10447 10446 10446 10445 10444 10444 10443 10443 10443 10442 10440 10439 10437 10435 10433 10433 10432 10432 10432 10433 10431 10427 10423 10421 10420 10420 10422 10425 10425 10422 10418 10411 10406 10406 10409 10408 10405 10402 10403 10402 10399 10400 10404 10406 10403 10398 10399 10400 10396 10393 10393 10391 10392 10395 10398 10400 10396 10388 10381 10379 10379 10379 10373 10369 10371 10376 10378 10381 10387 10389 10387 10386 10384 10381 10380 10378 10378 10381 10383 10385 10386 10386 10387 10389
10446 10445 10445 10444 10441 10440 10441 10439 10438 10437 10436 10436 10437 10435 10432 10432 10430 10429 10428 10426 10424 10423 10423 10424 10425 10422 10417 10412 10410 10409 10413 10418 10416 10412 10410 10404 10398 10397 10399 10400 10397 10391 10390 10391 10388 10388 10392 10395 10394 10391 10393 10394 10386 10379 10380 10380 10380 10387 10394 10391 10382 10375 10372 10369 10367 10366 10363 10363 10365 10364 10366 10374 10379 10373 10369 10373 10376 10375 10372 10371 10372 10372 10374 10375 10374 10373 10374 10375
10440 10440 10440 10438 10436 10434 10434 10433 10431 10431 10430 10430 10429 10426 10425 10425 10423 10422 10421 10419 10415 10412 10412 10415 10416 10413 10411 10406 10402 10400 10402 10406 10404 10401 10400 10398 10393 10390 10389 10390 10388 10383 10380 10378 10376 10377 10379 10381 10382 10380 10384 10389 10378 10368 10370 10369 10368 10379 10387 10379 10367 10360 10358 10358 10359 10359 10357 10356 10355 10353 10353 10361 10366 10363 10361 10364 10367 10367 10366 10364 10362 10361 10362 10362 10361 10360 10362 10364
10435 10434 10434 10433 10430 10427 10428 10426 10423 10423 10424 10424 10423 10419 10417 10417 10415 10414 10413 10412 10409 10403 10402 10405 10405 10403 10403 10398 10395 10393 10391 10389 10391 10391 10391 10388 10385 10382 10380 10378 10378 10376 10373 10368 10365 10365 10365 10367 10370 10368 10373 10379 10368 10358 10362 10361 10364 10376 10375 10360 10350 10347 10348 10352 10353 10351 10347 10343 10343 10344 10345 10349 10353 10354 10353 10353 10354 10357 10358 10355 10350 10349 10349 10349 10350 10352 10355 10358